DateTimeUTC,F1_A11,F1_S11,BsB_S11,BsG_S11,BsR_S11,BbsB_S11,BbsG_S11,BbsR_S11,BaB_A11,BaG_A11,BaR_A11,Tu_S11,T_S11,Uu_S11,U_S11,P_S11,T1_A11
2021-12-18T18:00:00Z,00000200,21000000,,,,,,,-000.05,-000.18,0000.17,18.6,25.4,,00.0,0665.9,31.0
2021-12-18T18:01:00Z,00000200,21000000,,,,,,,0000.33,-000.04,0000.11,18.6,25.4,,00.0,0665.9,31.0
2021-12-18T18:02:00Z,00000200,21000000,,,,,,,-000.05,0000.45,-000.19,18.6,25.4,,00.0,0665.9,31.0
2021-12-18T18:03:00Z,00000200,61000000,,,,,,,0000.41,0000.40,0000.35,18.6,25.4,,00.0,0665.9,31.0
2021-12-18T18:04:00Z,00000200,41000000,0000.49,0000.48,0000.82,-000.00,-000.26,0000.41,0000.85,0000.35,0000.59,18.9,25.4,,00.0,0666.8,31.0
2021-12-18T18:05:00Z,00000200,01000000,0000.81,0000.52,-000.11,-000.04,0000.04,-000.10,-000.09,-000.17,-000.09,19.0,25.4,,00.0,0666.8,31.1
2021-12-18T18:06:00Z,00000200,01000000,0001.05,0000.29,0000.26,0000.54,-000.10,-000.13,0000.14,0000.67,0000.30,19.1,25.4,,00.0,0666.9,31.0
2021-12-18T18:07:00Z,00000200,01000000,0000.71,0000.31,0000.02,-000.35,-000.19,0000.21,0000.36,-000.13,0000.14,19.1,25.4,,00.0,0666.9,31.1
2021-12-18T18:08:00Z,00000200,01000000,0001.01,0000.01,0000.09,0000.40,-000.03,0000.16,0000.41,0000.68,0000.12,19.1,25.4,,00.0,0666.8,31.1
2021-12-18T18:09:00Z,00000200,01000000,0000.88,0000.57,0000.20,-000.03,0000.50,0000.46,-000.12,-000.10,0000.05,19.1,25.4,,00.0,0666.8,31.0
2021-12-18T18:10:00Z,00000200,01000000,0001.51,0000.27,0000.34,-000.64,0000.20,0000.14,0000.76,0000.16,0000.53,19.0,25.3,,00.0,0666.9,31.0
2021-12-18T18:11:00Z,00000200,01000000,-000.05,0000.53,0000.14,0000.14,0000.11,-000.01,-000.30,0000.01,-000.30,18.9,25.3,,00.0,0666.9,31.0
2021-12-18T18:12:00Z,00000200,01000000,0000.06,0000.15,0000.59,0000.68,0000.41,0000.39,0000.06,0000.38,0000.22,18.9,25.3,,00.0,0666.9,31.0
2021-12-18T18:13:00Z,00000200,01000000,0000.86,0000.35,-000.08,-000.71,0000.24,0000.07,0000.58,0000.28,0000.20,18.9,25.3,,00.0,0666.9,31.0
2021-12-18T18:14:00Z,00000200,01000000,0001.73,0000.56,0000.36,0000.23,0000.32,0000.05,0000.60,0000.44,0000.41,18.9,25.3,,00.0,0667.0,31.0
2021-12-18T18:15:00Z,00000200,01000000,0000.36,0000.49,0000.44,0000.58,0000.14,0000.24,0000.23,0000.05,-000.03,19.0,25.3,,00.0,0667.0,31.0
2021-12-18T18:16:00Z,00000200,01000000,0000.31,0000.36,0000.26,-000.14,0000.20,0000.20,0000.02,0000.19,0000.27,19.0,25.3,,00.0,0667.0,31.0
2021-12-18T18:17:00Z,00000200,01000000,0000.99,0000.21,0000.51,0000.35,-000.07,0000.16,0000.29,0000.26,0000.62,19.0,25.3,,00.0,0667.0,31.0
2021-12-18T18:18:00Z,00000200,01000000,0001.07,0000.47,0000.01,0001.47,0000.14,-000.07,0000.21,0000.31,0000.33,19.1,25.4,,00.0,0667.0,31.0
2021-12-18T18:19:00Z,00000200,01000000,0000.26,0000.57,0000.04,-000.06,0000.27,0000.16,0000.47,0000.38,-000.22,19.1,25.4,,00.0,0667.0,31.0
2021-12-18T18:20:00Z,00000200,01000000,0000.65,0000.32,0000.22,-000.15,-000.29,0000.18,0000.15,0000.13,-000.06,19.1,25.4,,00.0,0667.0,31.0
2021-12-18T18:21:00Z,00000200,01000000,0000.68,0000.14,0000.10,-000.13,-000.06,-000.03,0000.48,0000.43,0000.18,19.2,25.4,,00.0,0667.0,31.0
2021-12-18T18:22:00Z,00000200,01000000,0000.57,0000.21,0000.02,0000.02,0000.17,-000.42,0000.24,0000.24,0000.51,19.2,25.4,,00.0,0667.0,31.0
2021-12-18T18:23:00Z,00000200,01000000,0000.77,0000.13,-000.09,-000.47,-000.03,0000.34,-000.02,0000.33,0000.07,19.2,25.4,,00.0,0667.0,31.0
2021-12-18T18:24:00Z,00000200,01000000,0000.92,0000.57,0000.06,0000.12,0000.36,-000.02,0000.59,0000.38,0000.32,19.1,25.4,,00.0,0667.0,31.0
2021-12-18T18:25:00Z,00000200,01000000,0000.23,0000.23,0000.08,0000.05,0000.04,0000.01,0000.28,0000.23,0000.57,19.0,25.4,,00.0,0667.0,31.0
2021-12-18T18:26:00Z,00000200,01000000,0000.69,0000.19,0000.14,-000.28,0000.29,-000.09,-000.03,0000.27,-000.02,19.0,25.3,,00.0,0667.0,31.0
2021-12-18T18:27:00Z,00000200,01000000,-000.19,0000.64,0000.07,0000.47,0000.09,0000.10,0000.53,0000.28,0000.03,19.0,25.3,,00.0,0667.1,31.0
2021-12-18T18:28:00Z,00000200,01000000,0000.96,0000.31,0000.46,0000.33,-000.03,-000.10,0000.20,0000.71,0000.47,19.0,25.3,,00.0,0667.1,31.0
2021-12-18T18:29:00Z,00000200,01000000,0001.05,0000.50,0000.15,0000.28,0000.13,0000.26,0000.49,0000.04,0000.12,19.0,25.3,,00.0,0667.1,31.0
2021-12-18T18:30:00Z,00000200,01000000,0001.35,0000.05,-000.04,0000.74,0000.11,-000.10,0000.14,0000.15,0000.43,19.0,25.3,,00.0,0667.1,31.0
2021-12-18T18:31:00Z,00000200,01000000,0000.65,0000.22,0000.51,0000.20,-000.20,0000.20,0000.22,0000.01,-000.10,19.1,25.4,,00.0,0667.2,31.0
2021-12-18T18:32:00Z,00000200,01000000,0000.68,0000.33,0000.39,0000.37,0000.14,0000.12,0000.18,0000.18,0000.43,19.1,25.4,,00.0,0667.2,31.0
2021-12-18T18:33:00Z,00000200,01000000,0000.50,0000.30,0000.11,-000.01,-000.08,-000.12,0000.38,0000.36,0000.12,19.2,25.4,,00.0,0667.2,31.0
2021-12-18T18:34:00Z,00000200,01000000,0000.58,0000.54,0000.14,0000.02,0000.05,0000.15,0000.27,0000.18,0000.30,19.2,25.4,,00.0,0667.2,31.0
2021-12-18T18:35:00Z,00000200,01000000,0000.49,0000.30,0000.28,0000.66,0000.27,0000.09,0000.04,0000.69,-000.29,19.2,25.4,,00.0,0667.2,31.0
2021-12-18T18:36:00Z,00000200,01000000,0000.49,0000.47,0000.13,0000.23,0000.28,-000.13,0000.42,-000.00,0000.62,19.3,25.5,,00.0,0667.2,31.1
2021-12-18T18:37:00Z,00000200,01000000,0000.12,0000.33,0000.52,-000.44,0000.16,0000.02,0000.13,0000.17,-000.10,19.2,25.5,,00.0,0667.2,31.0
2021-12-18T18:38:00Z,00000200,01000000,0000.68,0000.35,0000.13,0000.58,-000.06,0000.27,0000.59,0000.15,0000.45,19.2,25.5,,00.0,0667.2,31.0
2021-12-18T18:39:00Z,00000200,01000000,0000.65,0000.30,0000.29,0000.27,0000.04,0000.14,0000.00,0000.18,0000.05,19.1,25.4,,00.0,0667.2,31.0
2021-12-18T18:40:00Z,00000200,01000000,0001.29,0000.22,0000.18,-000.08,-000.12,0000.06,0000.56,0000.50,0000.15,19.0,25.3,,00.0,0667.3,31.0
2021-12-18T18:41:00Z,00000200,01000000,0000.38,0000.40,0000.18,0000.16,-000.06,0000.17,-000.21,-000.24,-000.37,18.9,25.3,,00.0,0667.3,31.0
2021-12-18T18:42:00Z,00000200,01000000,0000.87,0000.26,0000.25,0000.93,-000.03,0000.28,0000.41,0000.34,0000.41,18.9,25.3,,00.0,0667.3,31.0
2021-12-18T18:43:00Z,00000200,01000000,0001.06,0000.62,0000.40,0000.10,-000.08,0000.25,0000.15,0000.21,0000.49,19.0,25.3,,00.0,0667.3,31.0
2021-12-18T18:44:00Z,00000200,01000000,0000.62,0000.21,0000.31,-000.26,0000.25,0000.19,0000.09,-000.02,-000.08,19.0,25.3,,00.0,0667.3,31.0
2021-12-18T18:45:00Z,00000200,01000000,0000.70,0000.25,0000.06,0000.63,0000.19,0000.07,0000.29,0000.41,0000.13,19.0,25.3,,00.0,0667.4,31.0
2021-12-18T18:46:00Z,00000200,01000000,0000.84,0000.49,0000.36,-000.61,0000.06,0000.22,0000.25,0000.27,0000.41,19.1,25.3,,00.0,0667.4,31.0
2021-12-18T18:47:00Z,00000200,01000000,0000.10,0000.24,0000.15,0000.13,0000.13,0000.26,0000.10,0000.06,0000.20,19.1,25.4,,00.0,0667.4,31.0
2021-12-18T18:48:00Z,00000200,01000000,0001.06,0000.37,0000.06,0000.57,-000.11,0000.10,0000.46,0000.41,0000.10,19.2,25.4,,00.0,0667.4,31.0
2021-12-18T18:49:00Z,00000200,01000000,0000.39,0000.29,0000.02,0000.18,0000.46,-000.07,0000.32,0000.22,0000.30,19.2,25.4,,00.0,0667.4,31.0
2021-12-18T18:50:00Z,00000200,01000000,0000.40,0000.71,-000.05,0000.62,0000.08,0000.17,0000.39,0000.16,0000.17,19.2,25.4,,00.0,0667.4,31.0
2021-12-18T18:51:00Z,00000200,01000000,0000.51,0000.42,0000.25,0000.35,0000.14,0000.02,0000.09,0000.59,0000.15,19.1,25.4,,00.0,0667.4,31.0
2021-12-18T18:52:00Z,00000200,01000000,0000.73,0000.18,0000.04,0000.46,0000.28,0000.21,0000.13,-000.58,-000.16,19.0,25.4,,00.0,0667.5,31.0
2021-12-18T18:53:00Z,00000200,01000000,0000.84,-000.18,0000.26,-000.26,0000.34,0000.01,0000.44,0000.83,0000.30,18.9,25.3,,00.0,0667.4,31.0
2021-12-18T18:54:00Z,00000200,01000000,0000.57,0000.18,0000.12,0000.02,-000.14,0000.03,-000.01,0000.05,0000.13,18.8,25.3,,00.0,0667.4,31.0
2021-12-18T18:55:00Z,00000200,01000000,0000.40,0000.45,0000.21,0000.11,0000.12,0000.21,0000.24,-000.13,-000.02,18.8,25.2,,00.0,0667.4,30.9
2021-12-18T18:56:00Z,00000200,01000000,0000.44,0000.47,0000.13,0000.90,0000.05,-000.01,0000.06,0000.20,0000.17,18.7,25.2,,00.0,0667.5,30.9
2021-12-18T18:57:00Z,00000200,41000000,,,,,,,-000.45,-000.42,-000.38,18.7,25.2,,00.0,0667.5,30.9
2021-12-18T18:58:00Z,00000200,61000000,,,,,,,0000.32,0000.22,0000.28,18.4,25.3,,00.0,0666.5,31.0
2021-12-18T18:59:00Z,00000200,21000000,,,,,,,-000.11,0000.08,0000.01,18.4,25.4,,00.0,0666.5,31.0
